Theta_e
327 328 327 325 327 328 327 328 337 352 359 359 360 360 358 358 360 367 367 363 366 368 367 368 368 365 359 356 360 362 352 344 344 344 343 343 344 345 343 343 344 344 340 340 345 348 347 349 349 349 350 350 351 351 351 352 351 351 351 352 351 351 351 349 349 350 349 349 350 350 351 349 349 350 349 348 348 348 349 349 351 352 352 353 351 351
326 326 327 328 328 328 326 324 334 354 359 358 361 360 359 360 361 364 364 363 366 366 367 367 365 364 362 359 363 365 355 343 343 343 343 344 344 344 344 344 345 344 340 343 346 347 348 349 349 349 349 350 350 350 351 351 351 351 350 351 352 351 351 350 350 350 348 349 350 350 350 349 347 349 349 349 349 349 348 347 347 350 351 352 352 353
325 325 327 327 326 326 324 323 338 357 357 357 360 359 358 360 361 360 360 361 362 365 368 367 364 364 362 359 362 364 360 354 350 346 343 344 344 344 344 344 346 344 342 345 346 346 348 349 349 349 349 350 351 351 351 351 351 351 351 351 352 352 351 350 349 349 349 349 349 349 350 349 347 347 348 348 348 349 350 347 343 344 347 349 352 354
322 323 325 325 323 325 324 322 340 357 356 359 361 357 358 360 358 357 358 359 360 363 366 366 364 362 359 361 365 362 363 368 366 354 345 344 345 345 342 342 344 344 343 346 347 347 349 349 349 349 349 350 351 351 351 351 351 351 351 352 353 353 352 352 350 350 350 349 349 350 349 349 348 348 349 349 349 350 352 349 343 344 346 347 351 353
322 323 323 323 322 324 324 321 338 355 353 357 360 358 360 361 359 357 357 359 360 360 363 364 360 358 359 362 365 364 365 369 369 359 347 346 346 344 343 342 343 344 344 347 347 347 349 349 350 350 350 351 351 351 352 351 352 351 351 352 352 353 353 352 351 350 350 348 350 351 350 349 349 350 351 351 352 352 352 351 347 347 348 347 350 352
321 322 320 322 322 322 322 322 338 351 347 351 357 359 362 362 361 360 358 360 358 356 361 363 354 353 359 362 364 365 366 367 368 359 347 348 348 344 343 344 344 344 344 346 347 347 349 349 350 350 350 351 351 351 352 351 352 352 352 352 352 353 353 352 352 352 350 349 350 351 351 350 349 350 351 352 353 353 353 353 351 351 349 347 350 353
321 320 320 323 321 321 320 321 339 349 342 344 353 357 360 361 360 359 358 358 355 354 361 364 356 352 354 359 363 362 365 367 365 359 352 355 352 343 343 345 345 344 344 345 346 347 349 350 350 350 351 351 351 351 352 351 352 353 352 353 352 352 352 352 353 353 351 351 351 350 351 351 350 349 350 351 353 353 353 353 353 353 350 348 350 355
321 319 321 322 320 321 318 318 334 344 340 345 354 358 361 361 359 359 360 359 357 358 360 362 361 355 350 357 363 361 363 367 365 360 358 363 357 345 344 346 344 345 344 345 345 347 349 350 350 351 351 352 351 351 352 352 353 353 353 353 352 352 352 352 353 353 352 352 351 350 350 351 350 349 349 351 353 354 353 353 354 353 352 352 353 355
320 319 319 321 320 319 317 322 336 346 350 355 358 358 360 361 360 360 361 360 359 357 355 357 359 353 350 358 364 361 360 365 367 362 359 363 361 351 346 346 344 345 345 344 345 347 349 351 351 351 352 352 352 352 353 353 353 353 354 353 352 353 354 353 353 353 353 352 351 349 349 350 351 350 350 351 353 354 353 353 353 353 354 356 355 356
320 320 320 320 320 317 323 336 344 352 358 358 355 355 356 358 358 360 362 359 356 354 352 355 355 350 350 357 362 359 358 363 366 361 357 359 360 358 352 345 344 346 346 346 345 346 349 351 351 351 353 353 353 353 353 354 355 354 354 354 353 354 354 354 355 354 354 353 350 349 349 350 350 350 350 351 353 354 354 354 354 352 355 357 356 356
321 322 324 323 321 321 334 348 349 354 357 353 353 354 354 356 358 361 363 360 353 351 353 353 353 351 350 355 359 360 361 363 363 360 358 358 357 358 355 347 345 347 346 347 346 346 349 351 351 352 353 354 354 354 355 355 356 355 355 355 355 355 355 355 355 355 354 353 351 350 350 351 351 351 351 351 353 354 353 355 354 353 355 357 356 356
321 320 324 327 328 333 345 354 353 353 353 352 355 352 350 353 356 356 356 356 353 351 353 353 354 354 350 355 362 365 364 363 364 362 358 358 357 356 355 349 346 347 346 347 347 347 349 350 351 351 353 354 354 354 355 356 356 356 356 356 356 356 356 356 356 356 355 353 353 352 351 352 352 353 352 352 352 353 354 354 354 354 355 356 357 356
321 321 324 327 333 343 353 355 354 352 352 355 353 348 350 351 352 353 351 352 353 352 353 354 355 354 351 360 367 366 363 360 363 363 356 355 356 354 354 351 348 349 347 346 348 349 349 349 350 350 352 354 354 354 355 356 357 356 356 356 356 357 357 357 357 357 355 354 354 354 354 353 353 354 353 352 352 352 353 354 354 354 355 356 357 357
317 321 325 326 331 343 354 353 348 349 351 352 348 345 350 352 352 355 352 350 352 351 352 354 356 353 352 364 371 366 362 360 362 363 355 353 354 354 354 351 350 352 350 347 348 349 348 348 349 349 352 354 354 354 355 356 357 357 357 357 357 357 357 357 358 357 355 355 354 354 355 354 353 354 353 352 352 352 354 354 354 355 356 355 356 357
312 317 326 328 328 336 349 351 348 351 351 350 351 347 345 348 350 352 353 352 353 352 352 353 353 352 353 362 367 364 363 362 362 362 359 357 356 356 358 356 352 352 352 350 348 348 348 347 348 348 350 353 353 354 355 356 357 357 357 357 358 358 357 358 358 357 356 355 354 353 354 354 353 354 353 352 352 353 354 354 353 355 355 355 356 356
311 317 329 328 328 332 339 342 342 349 347 347 350 343 339 347 348 346 350 351 351 353 352 351 353 357 362 365 365 364 363 363 363 363 365 362 356 353 357 359 355 351 352 351 350 350 348 347 348 347 349 353 354 354 356 355 356 356 356 357 358 358 357 357 358 357 356 356 355 354 354 354 353 354 354 353 353 354 354 354 353 354 355 355 355 355
314 319 328 325 327 330 333 334 335 340 341 341 343 339 340 347 346 343 346 345 347 353 351 349 354 359 361 363 366 366 363 361 363 363 364 363 358 355 356 361 359 354 352 352 351 351 349 348 348 347 350 353 353 355 356 355 356 356 356 357 357 358 357 357 357 356 355 356 355 354 355 355 354 354 354 353 354 354 354 355 354 355 355 355 354 355
319 318 325 324 324 328 330 331 330 333 335 335 336 339 340 341 342 347 349 346 346 352 351 349 353 355 352 356 365 368 364 362 362 362 362 363 361 357 356 359 359 355 352 352 352 350 348 348 348 347 350 352 353 355 355 355 355 355 355 356 357 357 357 357 357 355 355 357 356 356 356 356 355 355 354 354 355 355 356 356 355 356 356 355 354 355
323 315 323 327 325 329 335 334 329 328 329 332 336 340 340 338 336 339 345 346 345 349 352 350 351 353 351 355 364 367 366 364 362 361 361 363 362 358 355 355 356 356 353 351 351 350 348 348 348 347 349 352 354 355 355 356 356 354 355 355 355 356 355 355 356 356 356 357 358 358 358 357 357 356 356 357 356 356 357 355 354 355 356 356 356 356
325 317 319 326 325 328 331 329 325 324 324 327 330 335 342 345 342 336 338 341 342 347 349 346 347 351 354 361 367 366 366 364 362 361 361 362 361 359 355 353 355 358 353 349 349 349 348 348 348 347 348 351 354 355 356 356 356 355 355 355 355 355 355 355 356 357 357 357 358 360 359 358 358 357 357 358 357 356 356 354 353 354 355 356 358 357
328 321 316 323 327 323 321 323 325 324 322 320 321 324 330 335 337 336 334 333 339 346 347 346 347 350 358 366 369 366 364 363 362 361 359 359 359 358 356 352 355 358 353 348 349 348 347 347 347 347 348 350 353 355 356 356 356 356 356 355 355 355 356 356 356 357 357 356 357 360 360 358 357 358 358 358 357 356 356 356 355 355 356 357 358 357
327 324 317 320 321 317 321 327 327 328 326 322 322 322 325 329 332 334 333 330 334 340 343 345 347 352 362 365 362 363 363 360 362 361 360 360 360 358 357 355 357 361 354 347 347 347 346 346 346 347 348 350 353 355 356 356 356 356 357 357 356 356 356 356 356 357 357 356 357 359 360 358 356 357 358 358 358 357 357 356 356 357 357 357 357 356
329 329 322 320 321 320 323 326 323 325 326 323 324 324 326 331 333 331 331 331 330 333 339 344 348 355 366 367 360 361 361 358 359 360 360 362 360 358 358 359 361 364 359 351 347 346 346 346 346 347 348 349 353 355 355 356 357 357 357 358 357 357 357 356 356 357 357 358 358 359 359 358 358 358 358 358 358 358 357 356 356 357 357 356 356 356
331 331 324 324 335 336 331 331 331 328 324 320 321 323 324 327 332 334 340 341 335 334 339 344 346 350 363 372 366 360 360 359 358 358 358 360 360 359 359 360 362 364 362 359 354 348 345 346 345 346 349 350 352 354 355 356 357 357 358 358 358 358 358 357 357 357 357 357 359 360 358 358 359 359 359 359 358 357 356 355 356 357 356 356 356 356
325 332 333 331 335 337 335 337 336 333 330 325 323 323 322 324 328 333 338 340 334 332 335 337 338 346 361 370 366 360 360 359 358 357 357 358 360 360 359 358 362 364 361 362 363 354 346 345 347 346 348 350 351 353 354 356 358 357 357 359 358 358 359 358 358 358 357 356 357 359 359 358 359 359 359 359 357 356 355 354 355 356 356 356 356 356
324 334 345 335 327 328 329 329 328 330 331 328 327 329 328 323 319 325 331 330 328 330 332 332 336 349 364 365 362 362 360 359 359 357 357 358 357 357 358 356 358 361 361 365 367 361 351 346 346 347 348 349 351 353 353 355 357 357 358 358 358 358 358 359 358 358 358 357 357 358 358 357 357 357 358 358 357 356 355 354 354 354 355 355 355 356
333 337 348 343 330 328 333 335 335 333 326 324 331 338 341 336 327 330 331 328 332 333 333 339 344 350 360 363 362 363 361 361 361 358 357 358 355 354 355 354 354 357 362 365 366 365 360 351 346 347 349 348 350 352 352 354 356 356 357 358 358 358 358 359 359 358 358 358 357 356 356 357 356 355 356 356 356 356 355 354 354 354 355 355 354 355
337 328 333 337 330 328 334 335 333 330 327 329 337 342 346 346 344 342 332 330 338 334 331 347 356 351 357 365 363 361 361 361 361 359 358 358 357 354 353 354 356 360 362 364 365 365 364 357 350 348 348 349 349 351 352 353 355 355 356 357 358 358 358 358 359 357 357 357 356 355 355 356 356 355 355 355 354 355 355 354 354 355 355 355 355 354
336 325 324 326 326 326 328 330 331 333 336 340 342 342 345 346 347 348 343 344 348 339 337 353 359 353 357 362 360 359 358 357 357 358 357 357 358 357 355 356 359 360 361 363 364 363 363 362 355 348 348 349 349 350 352 353 354 355 355 356 356 357 358 358 358 357 356 356 356 355 354 355 355 354 355 355 353 354 355 354 354 355 355 355 355 355
333 331 329 325 326 329 330 331 335 338 338 340 342 344 346 346 346 347 349 352 353 350 350 356 355 354 354 354 356 356 354 353 353 353 354 356 357 357 357 359 360 360 360 361 363 363 363 362 355 349 351 352 350 352 353 353 354 354 354 355 355 356 357 356 356 355 354 355 354 353 353 353 353 353 354 354 353 353 353 353 354 354 355 355 354 355
326 327 330 330 329 329 329 330 335 339 339 339 341 345 347 347 349 349 349 351 353 353 354 354 354 356 353 350 352 351 350 350 351 351 353 355 356 355 356 357 358 358 356 354 356 358 359 358 354 350 352 351 350 353 355 354 355 354 354 355 354 354 355 355 355 354 353 354 353 353 353 353 352 352 352 352 352 352 351 351 350 352 354 354 354 355
325 325 332 335 330 324 324 327 331 334 335 335 336 341 346 347 348 349 349 350 351 352 353 354 356 357 354 351 351 350 348 348 350 351 351 351 352 353 354 354 353 352 352 352 352 352 353 356 354 351 352 350 350 352 354 355 356 354 354 355 354 353 354 353 353 353 353 353 352 352 353 352 352 352 352 352 352 351 351 350 349 349 351 352 353 354
330 327 330 333 328 322 323 326 327 330 335 337 337 338 342 347 347 347 349 350 350 353 355 355 355 355 353 352 352 352 351 350 351 352 351 350 351 351 351 351 349 349 351 351 351 351 351 352 351 350 351 352 351 351 352 354 353 351 350 352 353 354 354 353 354 355 355 354 354 354 353 352 352 351 351 352 352 352 352 352 351 349 349 352 352 354
335 333 331 329 324 322 326 327 328 333 336 337 340 342 342 343 344 345 348 349 349 351 353 353 353 350 349 350 353 354 353 353 352 350 351 351 351 350 350 349 349 350 349 349 351 351 349 348 348 349 351 352 352 351 351 352 352 350 348 348 350 352 353 352 351 355 358 357 356 357 356 355 354 353 353 353 353 354 353 354 354 351 351 352 353 353
335 333 332 329 324 324 332 334 333 336 336 335 343 349 344 338 339 342 343 345 348 349 350 350 350 349 348 349 350 351 350 349 349 348 349 349 349 349 349 348 348 348 348 348 349 348 346 346 347 348 349 349 350 350 349 349 350 350 349 349 350 351 353 353 352 354 358 357 358 358 358 357 356 353 351 351 354 356 356 355 356 354 353 354 354 353
332 330 333 334 328 326 333 337 337 337 335 335 342 343 338 336 339 343 344 342 344 348 349 349 349 348 349 348 346 346 346 345 345 346 346 346 347 347 346 346 346 345 345 345 345 345 344 344 344 345 347 348 348 348 347 347 349 351 351 350 350 351 354 355 353 353 355 357 358 357 357 357 356 353 352 352 353 355 355 356 357 356 356 357 356 355
337 334 332 331 327 327 330 332 336 339 336 338 341 336 332 335 337 343 346 343 341 346 349 349 347 346 347 347 346 346 345 344 347 348 344 343 344 343 344 344 343 343 343 343 342 343 342 342 342 343 345 346 347 348 348 347 348 351 352 352 351 352 353 352 352 353 353 354 354 353 354 355 354 351 351 352 353 354 354 354 356 356 356 357 358 357
334 334 335 331 328 334 336 332 335 342 342 343 342 334 331 333 332 339 347 344 340 344 348 348 348 346 347 350 350 348 349 351 352 349 346 344 343 342 343 343 342 342 343 342 342 341 340 341 343 343 344 345 344 346 347 347 348 348 348 349 349 349 350 350 351 351 351 352 351 351 352 353 352 349 348 349 351 352 352 354 354 355 355 356 357 357
333 339 345 339 330 333 339 337 338 343 344 343 339 334 333 334 332 337 348 347 341 343 347 348 348 347 348 351 350 347 353 359 354 348 346 345 343 342 342 342 342 342 341 340 340 339 338 339 341 342 342 342 340 341 343 345 347 346 344 344 346 346 347 347 348 348 349 350 350 350 351 351 350 348 346 346 347 348 350 353 353 353 354 354 355 355
344 347 344 335 330 332 340 342 341 341 342 340 336 336 335 334 333 335 343 345 341 342 346 348 348 349 349 349 347 346 352 357 351 347 346 343 339 338 339 340 340 340 340 339 337 337 336 336 337 337 337 337 338 339 341 343 344 342 340 342 343 343 344 344 345 346 347 347 348 348 348 348 348 347 346 346 346 347 349 351 349 349 350 352 352 353
343 344 338 332 331 337 343 343 340 341 343 338 335 336 335 336 342 343 342 345 344 343 345 346 345 346 345 345 345 345 347 348 345 344 343 338 336 335 336 337 337 336 336 336 335 334 334 333 334 334 334 335 337 339 341 342 341 338 338 339 340 339 340 341 342 344 344 345 345 345 345 345 345 345 345 345 345 346 346 346 345 344 346 348 348 349
335 337 339 337 334 338 344 345 342 342 341 336 335 338 337 339 346 345 342 345 346 344 345 345 343 343 342 342 344 343 343 342 341 340 339 337 336 335 333 332 331 331 332 333 332 333 333 333 333 332 332 332 334 335 337 337 336 335 335 336 336 336 338 339 340 340 339 340 342 343 343 344 343 344 344 344 344 344 344 344 343 343 345 346 346 346
332 332 335 336 336 340 345 347 347 346 341 335 338 344 344 342 345 346 342 341 342 344 346 345 343 342 342 341 342 341 341 340 338 338 338 338 336 333 329 328 328 328 330 331 331 332 332 331 331 331 331 331 330 331 333 333 332 332 333 333 333 333 335 337 337 336 336 337 338 339 340 341 342 343 343 344 344 344 344 344 344 344 345 345 344 343
333 334 338 338 338 343 345 344 343 342 337 335 341 345 343 341 344 348 346 342 341 343 343 343 343 342 340 340 340 340 340 339 338 338 338 337 335 331 327 326 327 328 329 330 331 331 332 331 331 331 332 331 329 329 330 330 330 330 330 330 330 330 331 331 330 329 330 331 334 336 337 338 339 340 340 341 342 342 341 341 342 343 345 344 342 341
333 336 342 340 336 340 342 339 336 335 332 333 338 339 338 338 341 343 344 342 343 342 341 343 344 342 341 341 340 340 340 339 338 337 337 337 336 332 328 326 326 327 329 329 330 330 330 329 329 330 331 332 330 329 328 328 327 327 328 328 328 329 331 330 328 327 327 327 328 329 331 333 333 334 335 336 336 337 337 337 338 339 341 342 340 339
332 335 339 337 333 336 337 333 333 335 333 333 334 334 334 336 338 342 344 344 343 342 342 344 344 343 343 343 341 341 340 339 339 337 336 336 335 331 327 325 325 327 328 328 329 329 328 328 329 330 331 331 329 328 329 329 328 328 328 328 327 328 330 330 329 329 330 330 329 329 328 325 323 324 328 330 330 330 330 333 336 336 336 336 335 334
330 335 338 337 336 338 337 333 333 335 334 334 334 332 332 333 334 338 341 341 341 341 342 343 344 344 344 343 343 342 341 341 341 340 339 338 334 330 327 324 323 326 328 328 327 326 326 328 329 329 329 328 326 326 326 327 328 326 327 328 326 325 326 327 328 328 329 329 330 331 331 328 324 324 328 332 333 331 329 331 333 332 332 332 331 331
333 335 337 338 339 341 337 333 334 335 335 336 337 335 334 333 331 332 335 337 341 342 339 338 339 341 342 342 342 343 342 343 343 343 343 341 334 330 329 326 322 324 327 327 326 324 324 325 326 326 326 325 324 324 324 325 326 326 326 328 327 324 322 323 325 326 327 328 327 328 331 332 330 330 331 333 334 332 330 330 330 329 328 329 330 330
341 338 338 338 337 336 334 333 336 337 335 336 337 336 336 335 332 332 332 333 338 342 341 338 336 337 338 338 338 341 343 343 340 339 342 340 332 329 331 329 326 326 327 328 327 326 325 325 325 326 326 325 325 325 325 325 326 325 325 326 326 325 324 325 325 324 325 327 327 327 329 331 331 331 332 332 331 330 328 327 327 326 326 326 326 327
342 336 334 334 334 337 337 335 335 338 337 336 336 336 336 335 335 335 333 332 335 338 341 341 338 335 335 335 335 338 343 342 337 334 336 335 331 329 330 330 329 328 328 328 328 327 327 327 326 326 326 326 326 327 327 327 326 326 326 325 324 325 326 327 326 325 325 326 327 327 329 329 329 330 330 330 330 328 325 323 322 323 323 322 321 322
341 335 333 334 335 338 338 334 334 338 339 336 335 336 335 334 336 336 335 334 333 332 333 338 340 339 338 336 333 335 339 338 334 332 332 332 332 330 330 329 329 328 328 328 327 327 326 327 327 327 326 326 327 329 328 328 327 327 327 326 325 325 327 327 326 326 327 328 328 327 328 328 328 328 328 327 327 326 324 322 321 321 321 320 319 318
Wind_Speed
3 3 2 5 5 6 6 8 8 6 8 10 6 5 6 5 3 2 3 4 3 4 4 3 5 4 3 5 2 5 4 10 14 13 12 11 9 8 9 9 7 8 9 13 24 28 26 27 28 27 26 24 22 23 24 24 23 22 22 22 21 21 21 21 22 20 19 20 19 19 18 19 20 20 18 16 15 14 14 16 18 16 14 12 11 10
2 4 5 8 8 9 9 8 7 6 9 9 6 5 5 3 3 2 3 5 2 1 4 5 7 4 1 3 6 7 3 10 14 15 13 13 11 8 11 11 8 7 7 13 21 24 25 26 27 27 26 24 23 23 24 24 24 23 23 23 22 21 22 22 22 21 21 20 19 18 17 18 21 22 21 19 16 13 11 14 17 16 14 13 12 10
2 4 9 11 9 10 9 6 6 8 10 7 5 5 4 3 4 4 2 3 1 1 3 6 6 4 3 5 6 7 4 5 10 14 15 14 12 10 12 12 8 7 8 11 16 20 24 26 27 26 25 25 25 24 25 24 25 25 24 24 22 22 23 23 23 22 21 19 18 17 15 17 21 22 21 19 16 13 11 11 14 14 13 13 12 10
3 7 12 12 9 9 10 6 6 8 7 6 5 5 4 5 5 2 2 3 1 1 2 7 5 2 3 5 5 6 6 1 5 9 13 14 13 13 13 11 9 9 10 12 13 16 22 25 24 25 25 25 25 24 24 25 26 26 26 25 24 24 23 22 22 21 20 19 17 14 13 16 20 21 20 18 16 14 11 11 13 13 13 13 13 11
8 11 10 10 9 10 10 7 7 6 4 6 7 5 6 9 6 3 6 6 4 2 2 7 5 1 5 6 4 5 6 1 4 6 11 10 11 14 13 11 10 10 11 13 13 14 19 22 23 25 26 25 25 24 24 26 27 27 28 26 25 24 23 22 22 20 20 19 17 14 14 15 17 19 19 18 18 16 13 12 14 13 13 13 13 12
11 11 5 7 10 10 9 7 10 9 5 5 7 7 10 12 6 9 13 8 4 2 3 6 4 3 7 7 4 4 5 1 2 5 11 8 7 13 12 11 11 11 11 13 13 15 18 21 23 25 26 26 25 25 25 27 27 27 28 27 25 25 24 23 22 20 20 19 18 17 17 17 17 18 19 18 19 19 16 14 14 13 13 13 12 13
8 8 6 9 12 9 8 6 10 11 7 3 5 8 11 10 10 13 14 7 3 4 4 4 4 3 5 7 6 5 5 2 1 4 10 7 7 11 11 10 11 11 11 12 13 15 18 21 22 23 25 26 26 26 26 26 25 26 28 27 25 25 25 24 22 20 20 19 19 19 18 19 20 19 19 19 18 18 16 15 14 12 13 13 12 12
6 7 7 11 11 8 7 5 9 11 7 3 6 13 13 11 12 12 9 4 3 4 3 2 1 3 4 7 6 5 5 3 3 5 8 5 6 11 10 10 13 12 11 12 12 14 18 22 23 24 25 26 27 27 26 25 25 26 28 27 25 25 25 24 22 21 21 18 18 20 19 19 21 20 19 19 18 16 15 15 13 12 13 13 12 11
5 6 8 11 9 7 6 5 10 10 4 2 10 15 11 11 10 7 5 3 3 4 4 3 2 3 3 3 3 5 6 6 5 7 8 5 5 9 10 11 14 13 12 13 12 14 19 23 25 26 25 26 27 27 26 25 26 26 27 26 26 26 25 24 23 22 22 19 18 21 21 19 20 19 19 20 18 16 15 14 13 14 15 13 12 11
6 7 8 8 7 8 5 5 11 12 7 7 15 15 11 10 7 5 4 3 3 2 3 6 5 3 3 2 4 6 7 7 6 6 7 6 5 7 8 11 13 12 11 12 13 16 22 25 27 28 27 26 27 27 26 25 26 27 27 26 26 26 25 25 23 22 21 20 19 21 20 20 20 19 19 20 19 18 17 15 14 15 16 14 14 14
9 8 5 6 7 7 6 8 11 14 15 15 15 13 10 7 5 4 2 3 3 1 2 6 8 4 2 4 6 6 6 7 7 6 5 5 6 6 6 9 12 11 9 11 12 16 23 26 28 28 27 27 27 26 26 25 27 27 27 26 26 25 25 25 24 22 21 21 21 21 20 20 20 19 19 20 20 19 19 18 17 17 16 15 15 15
7 7 5 4 6 8 10 10 12 15 16 14 10 8 8 4 3 4 3 3 2 2 1 5 8 6 4 4 6 6 6 6 7 7 8 7 6 6 5 7 11 11 9 11 11 13 19 22 24 26 26 27 27 26 26 26 27 27 27 26 26 25 25 25 24 23 22 21 22 21 20 20 19 19 19 20 22 20 18 19 19 18 17 15 14 15
5 5 6 4 5 13 14 10 10 9 8 10 8 6 6 3 2 2 1 1 1 2 0 3 7 6 5 3 5 8 9 10 9 8 9 9 9 8 6 7 9 10 9 10 11 12 14 17 21 23 25 27 27 27 27 27 27 28 28 27 27 26 25 25 24 24 23 23 23 21 19 20 20 20 20 20 22 21 18 20 21 19 19 17 15 16
4 5 5 2 4 11 14 11 7 4 5 9 9 5 4 4 2 1 2 1 1 1 2 1 6 4 4 2 6 10 11 12 12 10 9 8 7 7 5 6 8 10 9 9 11 11 12 16 21 23 25 27 27 28 28 28 28 29 28 28 28 27 26 26 25 25 25 25 24 22 19 20 21 21 21 21 21 19 19 21 21 19 19 19 18 17
2 4 4 4 6 9 12 11 11 9 7 8 6 4 4 4 4 3 3 2 2 1 2 1 4 4 2 2 4 7 8 9 9 8 7 5 4 4 2 2 7 10 9 8 10 12 14 19 23 23 25 27 28 29 29 28 29 29 29 30 29 28 27 27 26 26 26 26 25 23 20 19 20 22 22 21 20 19 20 21 21 20 19 18 18 17
1 4 6 4 5 11 12 8 10 11 6 3 3 3 2 4 5 4 2 3 4 2 1 1 2 3 3 3 3 4 6 8 8 5 6 7 8 9 4 2 5 9 9 8 10 11 15 22 24 22 25 28 28 29 29 29 29 30 30 31 30 29 29 28 27 26 26 25 25 24 22 20 20 21 22 21 21 20 21 21 21 20 19 18 17 16
1 4 6 4 2 8 13 10 10 11 5 1 2 2 3 2 6 6 2 2 4 2 1 2 2 2 1 2 3 6 7 9 9 8 7 8 10 12 8 4 4 7 9 9 10 11 14 20 23 22 25 28 29 29 29 30 31 31 31 31 31 29 29 29 28 26 25 25 25 24 22 21 21 21 21 21 21 21 22 21 20 19 18 19 18 17
2 4 7 3 2 3 7 9 8 9 8 5 2 5 2 1 3 5 3 1 1 1 1 2 4 2 1 1 3 8 9 10 12 11 9 7 7 10 9 6 4 5 7 8 9 12 15 20 22 22 26 30 31 31 31 32 33 32 32 32 31 30 29 29 29 28 26 25 25 24 23 22 22 21 21 20 20 21 21 21 21 19 18 18 19 17
2 2 7 4 5 3 3 6 1 5 5 8 6 7 4 2 1 3 3 3 2 1 1 2 3 3 4 3 4 9 11 12 13 12 10 9 8 10 10 8 5 5 5 7 7 9 13 19 22 23 26 30 32 32 33 33 32 31 32 32 32 31 30 29 28 28 27 26 24 24 24 24 23 22 21 20 20 20 20 21 21 19 18 17 17 17
1 1 5 5 2 6 4 4 1 5 3 4 4 4 3 2 3 3 2 3 4 2 1 1 0 3 4 4 7 10 11 12 13 12 11 10 9 10 11 9 6 5 5 8 9 9 13 19 23 24 27 30 32 32 32 32 31 31 31 31 31 30 29 29 28 27 27 27 24 24 25 25 24 23 21 19 20 19 19 20 19 19 19 17 16 16
3 1 3 7 2 6 4 4 6 5 5 3 3 2 3 0 2 2 1 2 4 4 2 1 0 4 4 3 8 10 10 11 13 12 11 11 11 10 11 10 8 6 6 9 9 9 13 20 24 25 27 30 32 32 32 32 31 31 31 31 31 30 28 28 28 26 27 27 25 25 25 26 25 24 22 20 19 20 19 19 18 18 18 17 17 17
2 2 2 5 4 1 3 5 7 8 7 6 4 4 5 2 3 3 0 2 2 4 3 3 2 5 3 3 6 8 9 10 12 12 10 11 11 10 9 9 7 5 6 10 10 9 13 19 23 25 27 29 30 32 32 31 31 31 31 31 31 30 29 29 29 28 27 26 26 26 24 25 25 24 23 21 20 20 20 19 19 19 18 18 18 18
1 1 2 3 3 4 8 8 4 7 6 5 5 5 5 4 4 5 3 3 2 3 2 3 1 4 3 3 5 6 8 10 12 11 9 8 8 9 7 6 5 2 4 7 10 10 14 20 24 25 27 28 30 32 31 31 31 31 31 31 30 30 30 30 29 28 28 26 25 25 25 24 24 23 22 22 22 21 21 20 19 18 18 18 18 18
1 2 3 4 5 5 7 7 4 3 1 1 2 3 4 4 4 5 5 3 4 3 2 3 1 3 4 2 5 6 7 8 10 11 11 9 7 8 8 7 5 1 4 5 7 9 14 20 22 23 25 26 28 31 32 31 31 31 31 30 30 31 30 30 29 28 28 28 26 25 24 25 25 24 23 21 21 22 20 20 20 19 18 18 18 18
2 1 3 3 5 6 7 8 7 5 4 1 4 5 3 6 5 3 1 3 3 4 5 4 1 4 4 1 4 6 7 8 8 9 11 10 8 8 8 8 6 1 3 5 3 6 12 15 17 21 24 25 27 29 30 31 31 31 32 31 31 31 30 29 29 28 28 28 28 26 25 26 26 26 25 23 21 22 20 19 20 20 20 19 19 19
1 1 3 3 3 2 2 3 3 4 4 3 4 5 4 5 5 4 2 4 2 3 4 4 3 3 2 2 4 5 7 7 7 7 8 8 9 9 8 8 6 2 2 4 4 1 7 10 16 21 23 24 26 29 30 31 32 31 32 33 33 32 31 31 30 29 29 29 29 29 27 27 27 27 26 25 23 23 22 21 21 21 21 20 20 20
1 1 2 5 5 4 4 6 6 4 3 5 6 9 9 5 2 6 4 4 4 4 3 3 3 5 2 2 4 5 6 7 6 7 7 6 7 8 7 9 9 5 0 2 4 4 3 1 6 18 25 26 26 29 31 31 32 32 32 33 34 33 32 32 31 30 30 29 30 30 29 29 29 27 26 25 24 23 22 22 22 22 21 20 20 21
2 3 3 2 2 1 4 5 5 3 3 5 7 10 11 9 7 8 4 5 5 6 2 4 4 6 2 2 4 3 4 5 5 5 5 6 8 9 8 10 11 8 3 3 4 5 7 7 8 4 16 27 28 28 31 33 33 34 34 34 34 34 33 33 33 32 31 31 31 30 29 29 29 28 26 24 23 23 22 23 23 22 21 21 20 21
4 3 6 5 7 9 9 10 10 7 6 8 10 13 14 13 11 9 4 3 6 6 3 6 12 9 4 5 6 4 5 7 7 6 5 4 3 6 10 12 12 10 6 5 5 6 7 7 7 11 9 15 29 29 28 30 32 33 34 34 34 33 33 33 33 33 33 32 32 31 29 28 27 26 26 25 24 23 23 23 24 23 23 23 22 22
4 2 7 6 7 9 11 12 11 9 10 12 12 12 15 16 14 12 10 11 13 11 8 12 16 11 6 6 7 7 7 8 8 8 8 8 7 5 2 6 9 8 6 6 6 6 7 8 9 3 12 9 16 27 28 29 31 31 30 31 32 32 33 33 32 33 34 34 33 32 30 29 28 26 25 25 25 25 25 24 25 26 26 25 24 24
3 2 5 6 6 4 6 7 11 13 14 15 13 12 14 17 16 14 12 10 11 11 11 13 14 9 5 4 7 7 7 8 9 8 8 8 7 7 6 4 3 3 5 5 4 5 7 8 10 11 2 8 5 9 21 26 29 32 32 31 31 31 31 32 32 31 33 34 34 33 31 30 28 27 27 25 23 24 26 24 22 25 28 28 27 26
3 2 3 6 4 3 5 4 5 11 14 15 14 15 13 15 14 11 10 8 6 7 10 12 10 4 4 3 6 8 9 10 9 7 6 6 6 7 6 4 6 7 6 5 4 4 5 6 7 9 10 7 4 2 10 18 22 23 24 28 33 33 32 32 32 31 32 33 32 31 32 30 28 27 25 21 18 20 23 22 19 20 24 27 27 27
2 2 3 5 2 3 6 4 0 6 10 9 7 10 9 10 12 11 12 13 10 6 8 7 4 2 4 4 6 9 10 10 6 5 4 5 5 5 4 5 7 6 3 3 3 3 3 6 9 10 12 11 7 4 5 9 12 10 6 3 12 23 25 23 21 20 21 24 23 24 26 27 27 27 25 21 17 16 18 19 18 18 19 22 25 25
3 4 4 3 1 2 4 5 5 6 5 2 4 7 8 9 16 15 12 14 13 10 8 7 6 5 6 6 7 9 10 10 7 5 4 3 4 5 4 5 7 6 2 1 2 1 2 4 9 14 14 12 9 7 12 11 8 9 8 8 7 4 12 15 15 13 13 15 17 17 18 19 18 16 15 17 18 19 19 19 19 18 17 17 19 21
4 5 2 1 1 1 1 5 6 5 2 4 3 2 5 4 14 16 13 14 14 11 10 9 9 9 6 5 6 9 10 10 9 7 6 3 2 5 7 8 9 8 6 4 2 2 3 5 7 10 14 14 11 9 16 19 13 8 9 6 1 2 6 13 19 20 16 16 18 18 16 16 15 11 5 3 7 12 15 16 18 18 17 16 16 17
4 3 2 1 0 0 2 4 3 3 3 4 5 3 4 3 6 10 11 13 12 9 7 8 8 8 8 6 6 8 8 8 7 7 7 7 5 5 6 6 7 8 8 8 8 8 9 9 10 12 15 15 12 10 13 17 14 9 8 10 11 10 9 10 15 18 17 16 16 15 13 14 16 16 12 8 8 8 8 10 15 16 16 15 16 16
5 4 3 2 1 1 3 3 3 3 1 1 1 1 4 5 2 5 6 6 8 7 6 5 5 4 4 4 4 5 4 4 6 6 7 7 8 7 6 6 6 7 8 10 14 17 17 15 14 14 16 16 15 13 13 15 15 15 14 13 13 10 8 6 6 8 11 12 10 9 11 13 14 13 15 17 18 15 11 12 14 14 13 12 13 15
5 4 4 2 1 2 5 4 4 3 1 3 4 6 5 4 3 3 5 3 6 6 5 4 4 2 0 1 2 2 1 3 4 4 4 5 5 5 6 8 8 8 8 9 13 17 19 20 17 14 16 18 18 15 14 13 13 15 16 14 10 8 9 10 8 5 6 7 6 6 9 13 13 11 12 16 18 18 16 16 17 16 13 11 12 14
8 4 5 4 1 2 5 4 2 1 3 4 7 9 8 6 4 1 5 3 5 5 5 4 4 1 3 4 3 2 3 3 1 2 3 4 4 4 6 7 9 11 10 10 12 14 17 20 18 15 16 19 18 16 16 15 14 15 14 12 10 9 8 9 8 8 8 7 7 8 9 11 12 12 12 13 15 17 18 17 15 12 12 12 13 13
7 4 4 4 1 2 4 3 1 1 3 5 7 10 10 7 0 5 4 3 5 4 4 4 4 1 2 3 3 4 3 3 3 1 1 4 6 7 9 9 10 11 12 11 12 13 14 16 17 16 17 18 18 18 19 18 17 17 16 13 11 10 9 8 7 8 8 8 9 11 11 10 10 11 12 14 16 19 20 18 13 9 8 9 10 12
5 3 3 4 2 2 4 3 0 1 3 5 7 9 10 6 5 6 3 5 2 2 4 4 5 3 1 2 2 3 2 3 4 2 3 5 6 9 12 14 14 13 13 13 13 13 15 17 18 19 18 17 17 18 18 19 20 20 19 17 15 14 12 11 9 9 9 9 11 13 11 10 9 10 11 13 15 18 17 14 12 10 9 8 8 9
2 3 2 2 2 3 3 3 1 2 4 5 7 8 5 3 3 3 4 3 3 3 4 5 5 4 5 5 4 4 4 5 5 5 5 5 5 7 12 15 16 15 15 14 13 13 15 16 17 19 18 16 15 16 18 20 21 21 20 20 19 16 15 13 12 14 16 17 16 13 11 11 11 12 12 11 13 13 11 9 10 11 10 10 9 8
1 1 2 1 1 2 3 3 2 1 5 8 7 4 3 3 5 5 1 3 4 4 5 5 4 3 5 6 6 5 6 6 5 5 5 5 5 8 11 13 14 14 15 15 14 13 14 15 15 17 17 16 16 16 19 22 21 20 21 21 19 16 16 15 15 17 21 23 22 19 16 15 15 15 15 13 13 13 10 8 9 10 11 11 10 10
1 2 1 1 0 2 2 1 2 4 5 6 4 2 1 1 4 5 4 4 3 3 4 4 4 3 5 6 6 6 5 5 5 4 5 5 5 7 10 12 14 15 15 16 15 15 16 16 16 17 18 17 18 18 19 21 21 20 20 18 16 16 16 16 16 17 19 20 21 20 19 18 18 18 17 16 15 14 13 11 10 10 11 12 12 12
1 3 4 2 1 3 4 3 4 3 2 5 4 3 3 4 3 5 6 5 3 2 3 4 4 4 4 6 6 5 5 5 4 4 4 4 4 5 7 9 12 15 16 15 15 16 16 16 16 16 16 16 17 18 17 18 19 18 15 14 13 13 14 14 14 15 15 15 16 16 17 18 18 16 15 15 15 15 14 12 12 11 10 11 12 10
2 3 4 3 3 3 3 2 3 3 4 5 5 5 5 6 4 4 6 5 3 3 3 4 5 4 4 5 5 5 4 5 5 4 3 3 3 3 4 6 9 12 14 15 15 15 15 15 14 14 13 13 13 14 14 15 16 15 13 11 11 10 11 12 13 13 13 12 11 10 12 13 12 11 10 11 11 11 12 12 13 14 13 12 12 11
1 2 4 4 4 4 3 1 3 4 4 4 6 6 7 7 6 5 5 3 4 4 4 4 4 4 4 5 6 6 5 6 6 4 3 2 1 0 2 5 8 9 11 13 13 13 13 13 12 11 11 9 9 9 11 12 13 13 11 10 9 9 9 10 10 11 11 11 10 8 8 8 8 7 7 7 8 8 9 9 11 13 13 12 12 12
1 3 4 4 3 3 3 4 4 5 4 4 5 5 5 7 7 6 5 4 4 5 5 4 4 4 4 5 6 6 5 5 5 5 4 2 1 2 2 4 8 9 9 10 12 13 13 12 11 10 9 8 7 7 9 10 10 9 8 8 8 8 8 8 7 7 8 9 10 7 6 7 8 6 5 5 8 10 11 11 12 13 13 12 11 11
2 4 3 4 5 5 3 4 6 6 5 5 5 4 4 5 6 7 7 6 6 6 6 6 6 6 6 6 6 6 6 5 5 6 5 4 3 4 5 7 9 10 11 13 14 14 13 12 11 9 8 7 6 6 7 8 7 6 6 6 7 7 7 6 5 6 7 7 6 6 7 9 10 10 9 9 11 12 13 13 14 14 14 13 12 11
4 4 3 5 6 3 4 5 6 6 3 1 2 4 4 4 6 8 8 8 7 5 5 6 7 7 8 9 8 7 5 4 6 7 7 5 6 8 10 12 13 13 15 17 18 16 15 14 12 11 9 8 6 6 7 7 7 6 4 4 5 7 6 5 6 7 7 6 6 8 10 11 13 14 15 15 14 13 13 13 12 12 12 12 12 11
4 5 6 7 5 5 7 8 6 6 5 5 4 5 4 4 7 8 7 7 7 6 6 5 5 5 6 7 9 9 6 4 6 7 7 7 8 9 12 14 16 16 17 19 19 17 16 15 13 12 11 10 8 8 8 8 7 5 4 3 4 6 6 6 8 9 8 8 9 10 11 12 14 15 16 15 14 14 13 13 11 10 10 10 10 10
Wind_Direction
163 139 203 205 209 218 205 196 199 193 163 154 156 161 160 154 149 153 137 175 185 135 177 181 95 106 197 203 245 311 232 166 156 158 159 162 157 156 163 159 155 169 174 149 146 154 156 154 157 160 162 165 167 171 171 170 171 173 172 170 169 172 173 173 174 176 178 180 184 182 184 190 188 186 186 180 177 181 184 186 183 182 180 175 171 169
154 169 214 216 210 216 219 211 197 170 148 147 154 155 148 145 127 79 116 174 224 96 171 136 110 134 234 271 308 329 251 175 161 162 161 163 160 155 165 165 164 176 165 142 145 153 154 154 157 159 161 165 168 172 174 172 173 175 174 170 170 171 172 175 176 177 178 182 185 181 180 188 190 189 189 186 184 185 186 188 188 186 184 177 169 167
195 218 228 220 210 218 229 222 185 163 150 147 148 139 137 143 113 69 93 174 266 336 154 133 129 148 187 244 296 333 290 182 157 164 164 163 159 157 168 170 170 173 156 146 149 151 152 155 157 158 161 166 169 172 175 175 173 174 173 171 171 171 171 174 176 177 180 183 184 183 181 180 184 188 190 189 187 187 189 192 191 187 186 181 174 172
209 233 229 221 207 212 229 226 188 171 155 150 149 140 153 167 157 136 172 169 85 22 131 125 112 107 179 253 305 320 287 210 127 158 166 165 158 161 172 170 169 170 156 152 153 149 151 154 155 159 163 166 167 167 171 173 172 173 174 173 173 173 173 174 176 179 182 182 182 186 185 174 172 176 181 183 186 190 193 194 191 188 188 185 181 181
228 236 222 219 213 209 221 215 188 179 165 173 170 151 156 178 189 130 140 152 106 55 84 112 100 122 192 233 279 301 292 332 89 139 168 176 160 162 172 168 166 168 158 154 155 151 152 153 156 160 164 165 166 167 168 170 171 173 175 177 178 177 177 177 177 178 181 182 184 188 187 178 171 168 170 174 180 188 192 191 191 189 190 188 184 185
241 241 207 221 228 213 217 206 189 185 166 186 197 177 165 169 153 113 134 150 124 158 209 144 141 190 200 219 235 282 289 330 51 149 168 181 164 164 172 167 165 166 160 157 156 154 154 154 156 160 164 166 169 170 169 170 171 174 176 179 181 180 179 178 177 180 186 189 190 188 185 185 180 173 175 178 180 186 190 191 192 191 192 192 185 181
242 232 187 215 232 222 218 205 194 183 153 193 202 157 147 140 126 134 148 156 139 172 199 170 157 150 199 226 218 231 255 248 322 179 169 171 171 172 173 167 165 165 160 159 157 155 155 155 156 160 165 168 172 174 173 172 173 176 177 179 182 181 180 180 183 188 193 194 194 192 188 189 187 182 184 187 188 191 193 194 194 193 191 188 182 177
228 215 190 210 226 223 216 213 203 182 155 204 160 132 131 130 137 147 148 142 126 123 124 156 117 111 200 231 203 204 252 249 232 201 177 170 177 178 177 169 166 166 162 161 160 155 157 159 160 164 167 169 173 174 174 176 177 178 179 180 181 180 181 185 190 193 195 195 195 195 192 189 191 190 188 190 194 196 195 195 195 192 185 179 179 183
231 205 195 201 209 217 220 206 182 156 120 144 126 119 122 125 132 134 113 95 107 116 142 190 149 132 208 228 151 176 233 238 220 208 192 184 190 183 179 174 168 167 163 162 162 158 161 163 164 167 168 170 172 173 176 179 181 181 181 182 182 182 185 189 192 194 196 197 195 194 193 192 194 195 193 191 195 198 197 197 195 189 184 182 187 194
256 222 200 182 193 215 208 163 148 126 100 102 103 96 90 93 93 87 89 82 85 122 181 192 180 169 204 198 164 185 222 226 213 211 202 190 195 187 179 176 170 167 164 163 162 160 163 166 166 168 168 169 172 174 177 180 182 183 183 184 185 187 190 191 193 196 199 200 197 192 192 193 194 196 196 193 193 198 200 200 194 187 185 189 195 200
259 253 218 175 195 202 149 124 119 114 118 111 95 89 84 73 63 62 47 62 82 245 224 193 195 193 205 202 192 189 200 205 197 203 207 196 200 193 180 177 172 168 166 162 160 159 163 166 167 168 168 169 172 174 176 180 182 184 186 187 188 190 191 191 193 195 196 199 198 193 191 192 193 194 195 194 195 198 202 203 197 189 188 194 202 205
272 270 247 209 182 146 118 108 106 113 122 112 103 114 101 61 24 40 1 31 103 220 219 191 198 202 220 217 200 186 171 184 196 199 199 196 204 198 181 178 175 172 166 159 158 157 160 165 167 168 169 171 173 175 177 180 182 184 187 189 190 191 192 192 192 193 193 194 192 190 191 192 194 195 196 197 199 200 204 204 198 192 193 200 204 203
289 257 244 243 137 123 114 106 108 117 122 113 121 132 106 80 24 32 316 331 155 215 351 189 191 201 239 228 191 187 179 188 200 204 199 194 199 197 183 181 176 172 170 162 158 159 160 165 168 169 169 171 173 176 179 181 182 184 187 189 191 193 193 193 193 192 193 192 189 189 192 196 199 201 201 200 200 203 204 199 194 194 197 201 201 199
299 296 278 243 132 125 123 124 135 148 147 138 144 150 124 124 115 123 230 232 202 222 8 132 174 189 269 247 189 191 190 192 195 201 205 196 199 201 182 179 177 172 174 167 160 162 163 166 170 170 171 172 174 177 179 181 183 184 187 189 192 195 196 196 195 195 195 195 194 195 198 200 202 202 201 200 200 201 198 195 195 197 200 203 203 204
242 302 276 206 163 140 133 144 158 157 161 163 151 133 140 157 154 163 196 187 171 171 34 46 169 177 223 231 199 190 187 190 189 191 192 176 197 247 279 189 183 173 172 172 166 166 167 169 171 169 170 174 176 177 178 181 183 184 186 189 191 194 196 197 198 199 200 199 199 201 201 200 201 201 201 201 202 201 197 197 201 204 205 207 207 209
208 252 250 229 167 145 142 157 151 136 153 201 133 113 184 195 146 127 160 159 138 126 111 189 218 206 191 193 189 175 179 186 181 164 154 155 181 212 238 259 203 179 170 173 170 170 169 171 173 168 167 173 177 177 179 181 183 184 186 189 192 194 196 197 200 202 202 202 201 202 201 202 202 201 203 204 205 205 203 203 207 209 211 211 210 212
8 275 271 313 353 143 146 155 150 142 151 181 146 194 240 199 128 112 92 92 101 105 162 200 239 275 232 213 172 162 177 184 179 171 165 161 173 191 200 221 229 192 175 173 173 174 171 171 174 169 167 173 176 177 180 182 185 187 187 189 192 194 195 197 200 202 203 202 201 201 201 202 201 199 201 205 206 207 207 209 211 213 214 213 212 213
140 292 284 273 279 217 149 140 158 170 147 120 201 225 215 30 81 98 104 86 92 120 182 210 233 231 198 246 161 160 175 184 183 179 171 163 167 183 192 200 222 208 178 167 170 174 172 172 174 169 169 175 177 179 182 184 186 188 189 191 192 193 195 197 200 201 201 201 201 201 200 199 200 201 202 205 207 207 208 211 213 214 214 211 213 214
117 313 291 250 188 208 101 95 142 247 160 138 187 200 161 129 107 103 121 152 148 159 219 222 241 222 200 211 185 178 184 184 182 180 172 170 175 187 196 197 206 213 174 156 173 183 176 176 176 170 170 175 178 180 182 183 185 187 190 192 193 195 196 197 199 200 201 202 202 202 201 199 200 202 203 205 207 208 209 211 213 213 212 209 211 212
28 159 284 301 178 156 107 92 189 269 240 146 151 177 171 140 152 162 157 147 140 149 219 210 324 244 229 205 187 191 190 179 177 178 176 178 182 189 198 197 195 208 186 170 186 192 179 179 180 175 172 174 178 180 180 181 184 186 190 192 194 197 198 197 199 201 203 203 204 203 202 202 203 203 204 204 205 208 209 208 210 211 210 210 213 212
340 119 280 317 343 141 149 180 181 194 207 170 116 164 208 122 120 155 158 137 128 138 176 144 207 259 253 195 183 188 182 175 175 177 179 186 189 189 194 195 188 193 195 185 188 192 182 179 181 180 176 174 176 179 180 181 184 186 188 191 193 196 198 198 200 202 205 205 205 205 203 204 205 205 205 205 207 211 211 210 210 210 210 213 217 216
337 1 320 326 341 122 246 239 177 168 187 169 145 180 192 165 120 114 242 264 120 129 168 156 192 268 263 181 186 185 171 169 175 180 185 189 190 190 189 187 179 180 199 193 187 191 184 177 178 179 176 171 172 177 179 181 183 185 187 189 192 195 198 199 200 203 205 206 205 206 206 205 206 205 206 208 211 212 213 213 213 212 214 216 219 219
279 30 25 322 302 273 270 270 177 170 199 172 165 189 171 151 138 133 193 236 120 114 145 122 153 273 261 185 175 180 174 169 172 181 190 190 190 192 182 166 162 178 228 204 186 188 185 176 175 176 173 171 171 173 177 180 182 184 187 189 191 194 198 200 201 203 205 205 205 207 208 206 205 205 207 211 214 214 214 214 213 212 214 216 218 219
313 26 18 317 299 303 299 320 48 117 174 120 224 224 149 160 177 161 180 169 129 157 144 81 343 263 266 223 170 174 175 167 170 177 183 186 190 190 177 168 171 205 288 241 192 185 184 176 173 173 172 171 172 173 175 179 182 184 186 189 190 194 198 199 201 203 205 205 204 207 209 207 205 206 209 213 215 214 214 215 214 212 215 217 218 218
347 11 38 14 349 350 345 352 7 2 10 37 283 290 220 199 186 154 97 84 116 197 161 124 223 252 278 312 138 154 158 163 176 180 179 178 175 175 170 170 174 147 313 281 236 188 185 175 171 174 174 172 173 175 176 177 180 183 185 188 192 194 197 199 200 202 205 206 205 206 209 210 208 209 211 213 212 213 216 218 215 214 216 219 220 220
17 169 100 91 70 33 356 339 314 309 328 315 315 349 333 254 196 159 94 92 135 216 158 146 197 237 296 37 114 141 147 151 166 171 175 172 167 170 161 159 167 146 335 321 346 273 200 181 173 174 173 174 174 175 177 179 180 183 186 190 193 196 196 198 200 201 204 206 206 208 211 212 210 210 212 213 214 217 219 219 216 215 218 221 221 220
69 358 116 141 145 165 207 231 245 255 315 337 4 36 22 346 126 124 122 150 168 161 170 230 191 152 147 93 103 125 137 140 144 150 158 159 165 173 161 155 169 174 143 23 31 26 12 344 195 179 172 173 176 176 177 180 182 183 187 191 194 197 197 197 199 201 204 205 206 208 212 213 211 210 211 213 215 218 219 217 217 218 218 219 220 220
74 342 333 139 119 227 243 262 301 340 36 22 32 50 32 15 53 88 126 190 168 142 179 315 43 95 118 82 88 105 120 116 108 111 129 148 161 170 164 161 169 169 141 82 62 64 60 25 343 252 183 174 174 177 179 181 184 187 189 192 195 196 197 197 199 201 203 204 205 209 212 212 211 211 213 213 215 219 219 215 216 220 219 216 218 219
108 353 330 360 19 3 4 28 44 62 73 49 44 56 46 30 38 55 65 97 99 111 128 61 61 58 26 39 61 57 63 72 67 57 58 73 114 156 164 167 174 178 160 120 94 82 86 81 34 343 295 193 175 176 179 181 185 188 190 193 195 196 196 196 198 200 202 202 204 208 211 210 210 213 216 216 217 221 223 221 217 218 219 218 218 218
113 359 338 17 38 15 14 40 61 69 67 52 36 48 59 46 35 39 51 69 80 85 84 76 69 55 22 33 57 60 66 75 72 64 62 54 39 39 122 162 171 176 160 132 127 125 109 104 112 59 321 288 184 174 176 180 183 185 188 191 193 194 196 197 198 199 200 202 204 208 210 210 212 215 217 219 222 222 224 225 222 221 221 221 221 219
73 1 345 34 55 18 359 43 72 71 70 61 34 27 54 55 37 28 34 50 70 78 71 67 68 56 9 18 57 64 68 70 66 65 70 69 66 56 35 21 43 69 87 88 83 111 115 108 124 137 92 347 342 168 167 173 179 181 183 187 190 192 194 196 198 199 200 202 205 207 209 211 213 215 218 222 225 224 224 226 225 225 225 224 222 221
42 15 11 46 55 4 344 358 82 80 69 55 29 10 30 55 51 36 32 29 44 77 68 59 62 44 324 359 54 56 60 65 60 58 65 64 74 86 81 59 41 36 55 80 56 49 92 111 112 118 117 96 33 44 149 160 168 173 178 183 186 189 193 195 196 198 200 202 205 206 208 210 212 213 215 218 220 223 225 223 217 217 221 223 223 221
69 71 57 64 60 335 355 345 7 78 56 36 3 340 358 54 67 51 37 30 28 53 67 61 64 22 342 12 59 59 60 66 57 45 67 75 73 84 98 83 69 60 65 119 123 87 86 113 118 107 96 100 105 80 101 144 152 133 94 117 178 179 181 183 183 187 193 196 201 206 208 211 213 212 214 217 218 220 217 209 201 201 209 215 218 218
62 89 102 106 134 294 1 29 46 58 48 318 295 325 344 49 69 60 41 33 34 49 71 80 82 61 23 22 56 67 65 67 66 60 76 113 115 119 127 103 90 93 102 150 147 81 47 95 122 126 110 93 95 70 46 57 107 122 90 28 10 122 152 157 162 171 177 180 190 200 205 209 210 209 215 219 218 216 211 203 198 196 195 197 201 204
56 67 92 116 126 219 34 51 53 61 113 190 179 327 312 45 75 69 47 33 36 49 67 76 80 84 84 65 64 69 66 66 69 64 60 71 106 116 115 112 110 107 103 116 110 42 38 45 60 94 102 94 98 88 63 64 79 115 138 150 209 196 169 171 177 182 180 178 187 193 195 198 197 193 200 228 218 217 214 207 202 198 193 186 185 189
97 82 83 80 89 87 50 58 89 134 161 172 161 181 267 308 60 66 44 23 19 28 47 68 75 86 104 104 84 78 75 69 63 49 37 29 23 44 71 88 104 103 101 116 121 109 99 80 59 72 90 98 109 112 92 92 103 122 154 187 207 208 200 194 194 195 192 191 196 194 189 192 196 196 200 206 214 226 231 220 212 206 198 188 184 187
109 101 69 39 5 79 83 73 92 100 22 330 194 258 317 322 346 91 75 15 359 15 31 56 69 72 91 103 111 117 101 65 51 38 29 27 25 32 48 52 56 67 81 99 108 109 106 99 88 86 92 99 108 116 115 115 125 141 160 184 201 196 173 156 173 203 213 212 205 191 188 197 200 201 201 202 207 219 241 250 238 224 213 202 195 196
90 113 118 108 2 67 92 88 68 51 318 269 279 297 313 310 281 117 93 13 338 3 22 54 73 70 254 249 218 182 111 48 38 17 11 29 38 48 63 63 59 64 74 85 93 100 104 103 100 96 97 98 99 105 115 119 128 142 151 159 163 146 126 119 116 139 202 214 204 181 186 195 196 196 202 207 211 217 233 252 252 239 228 219 211 207
40 62 101 99 39 55 92 112 119 142 229 261 296 305 309 295 265 106 68 4 314 344 14 57 71 26 259 263 291 19 62 77 82 313 345 36 53 61 74 76 74 77 80 81 85 93 102 108 110 110 108 102 97 102 113 121 129 132 129 132 139 129 119 123 127 133 148 166 172 172 181 188 190 195 205 217 224 225 230 241 243 233 224 218 215 212
25 23 51 57 52 111 106 118 148 169 233 274 298 301 301 301 328 94 68 290 283 337 15 62 74 32 285 293 359 41 65 123 164 241 4 65 66 65 75 81 80 80 81 78 80 88 96 101 101 97 95 96 97 103 112 119 121 115 110 115 123 116 113 127 140 146 150 149 140 140 149 163 178 193 204 213 220 224 227 229 225 223 221 210 203 203
13 10 47 64 64 87 101 111 114 231 241 277 295 290 295 327 59 96 178 233 241 26 37 64 73 72 48 25 50 67 70 107 124 106 71 77 75 72 78 83 81 80 83 85 88 90 89 89 89 86 87 95 103 107 113 116 113 108 107 107 100 91 94 107 121 130 135 134 127 125 131 141 154 174 189 199 208 218 226 230 229 229 223 203 191 187
2 355 15 55 51 46 89 101 44 286 267 296 301 291 309 32 99 170 210 199 133 92 76 70 70 86 91 86 93 99 86 79 86 88 82 82 87 86 86 87 85 85 90 95 97 95 89 85 86 87 87 93 99 101 105 107 103 100 101 98 93 93 99 105 113 114 110 110 114 121 134 147 153 159 168 179 192 201 213 225 226 221 209 200 197 179
123 90 357 359 58 56 60 61 65 228 279 313 323 322 9 72 175 193 141 84 103 107 90 77 79 95 101 99 94 93 92 82 74 80 80 73 81 90 92 92 90 90 95 98 99 101 99 91 88 89 90 91 90 90 97 100 96 94 97 98 97 102 107 109 110 107 103 107 113 120 129 138 143 146 152 163 170 169 167 174 184 185 180 179 177 160
118 138 162 250 140 98 93 87 169 209 270 322 3 85 62 90 172 155 108 86 92 100 96 93 97 101 107 111 107 97 95 90 84 85 79 67 71 84 91 96 98 98 99 99 101 104 102 97 92 91 91 93 95 98 101 101 99 97 99 100 102 105 107 106 102 96 94 99 108 113 119 126 131 133 135 140 143 139 132 129 134 140 147 152 150 144
259 154 145 134 79 123 145 175 188 196 299 357 39 79 70 60 83 106 109 108 104 119 130 115 106 104 105 110 113 108 104 102 95 87 81 79 79 82 90 103 108 109 108 106 106 107 105 101 98 94 91 95 102 107 108 108 108 107 106 110 114 114 112 110 105 99 95 97 102 107 110 114 117 116 116 119 122 119 114 110 111 114 122 134 138 137
179 124 110 94 83 87 83 92 122 99 49 35 43 52 58 56 54 77 94 103 117 130 130 120 120 124 122 119 116 110 112 119 112 98 95 96 75 69 95 115 117 116 115 112 111 111 111 109 107 103 101 104 107 110 114 116 116 115 116 122 125 124 123 119 110 104 100 96 98 104 109 113 114 108 105 109 112 110 107 109 115 117 119 123 122 120
211 96 92 105 115 98 84 121 123 95 73 57 51 47 50 49 46 61 83 104 124 117 114 128 135 129 123 125 123 118 120 124 118 108 105 113 119 35 123 138 141 134 126 123 121 120 119 118 117 114 113 113 111 114 120 123 121 120 125 128 127 131 139 131 111 102 101 96 95 104 116 122 123 118 112 115 119 118 116 118 125 128 127 124 119 114
198 94 102 112 101 85 123 163 129 87 69 63 64 61 55 53 50 54 64 76 88 87 91 107 116 112 111 118 118 113 109 105 104 101 88 79 174 213 181 171 174 165 149 142 138 133 128 126 124 120 115 110 106 108 117 121 122 123 127 129 126 132 143 138 118 111 111 102 96 106 128 134 137 147 158 150 135 128 124 122 124 124 120 116 116 116
110 94 118 119 92 76 99 130 110 82 51 41 61 68 62 64 66 62 60 61 60 61 71 81 85 92 106 117 116 107 101 94 93 96 86 67 85 115 127 148 164 163 156 153 152 146 139 137 137 134 125 117 115 117 123 128 129 126 126 133 138 139 138 135 131 133 132 120 106 109 127 141 153 168 174 160 140 129 121 116 115 113 108 103 101 102
94 109 134 121 118 144 181 171 144 122 110 131 119 97 77 73 75 68 63 61 56 53 64 74 75 81 96 112 120 115 109 109 106 102 96 86 87 98 111 124 132 135 137 140 142 141 139 138 140 135 125 120 124 133 144 146 141 132 124 131 147 146 132 125 134 135 128 130 140 138 135 141 153 160 160 154 147 136 123 114 109 108 106 101 98 99
137 162 160 140 152 193 193 183 161 132 144 188 170 122 98 84 77 71 70 70 66 63 67 73 76 77 83 102 118 122 124 124 120 115 105 95 93 95 101 114 124 130 135 138 138 137 136 138 140 135 127 121 117 121 136 144 138 128 117 114 136 145 132 124 134 134 119 119 140 150 146 142 146 149 148 146 145 140 131 122 114 105 100 98 98 101